Preview of NWS' New Version of Forecast
This preview is not operational and should not be used for support decisions.

Regional Weather Roundup (RWR)

Issued by National Weather Service (NWS)

                            
000
ASUS44 KMEG 210200
RWRTN 
TENNESSEE HOURLY STATE WEATHER ROUNDUP
NATIONAL WEATHER SERVICE MEMPHIS TN
900 PM CDT WED MAR 20 2019

TNZ002-004-019-021-049-052-054-088>092-210300-
WEST TENNESSEE
  
CITY           SKY/WX    TMP DP  RH WIND       PRES   REMARKS
MEMPHIS INTL   RAIN      45  44  97 SW3       30.15S                  
NWS MEMPHIS      N/A     45 N/A N/A MISG        N/A                   
JACKSON        LGT RAIN  48  45  89 NW10      30.12S                  
DYERSBURG      MOCLDY    47  45  93 W8        30.12S                  
$$

TNZ008-025-027-028-033-062-065-066-210300-
NORTH MIDDLE TENNESSEE
  
CITY           SKY/WX    TMP DP  RH WIND       PRES   REMARKS
NASHVILLE      CLOUDY    58  28  32 NW9       30.05R                  
CLARKSVILLE    FAIR      50  39  66 W13       30.07R                  
SMYRNA         CLOUDY    57  31  37 CALM      30.04R                  
CROSSVILLE     FAIR      49  24  37 CALM      30.06R                  
$$

TNZ061-075-076-078-094-096-097-210300-
SOUTH MIDDLE TENNESSEE
  
CITY           SKY/WX    TMP DP  RH WIND       PRES   REMARKS
FAYETTEVILLE   MOCLDY    54  32  43 S5        30.04S                  
$$

TNZ017-018-042-046-047-210300-
NORTHEAST TENNESSEE
  
CITY           SKY/WX    TMP DP  RH WIND       PRES   REMARKS
TRI CITIES     MOCLDY    46  26  45 CALM      30.06R                  
$$

TNZ012-013-036-069-073-074-210300-
CENTRAL EAST TENNESSEE
  
CITY           SKY/WX    TMP DP  RH WIND       PRES   REMARKS
KNOXVILLE      CLOUDY    51  26  37 S5        30.05S                  
OAK RIDGE      FAIR      49  28  44 CALM      30.06S                  
$$

TNZ083-085-099-210300-
SOUTHEAST TENNESSEE
  
CITY           SKY/WX    TMP DP  RH WIND       PRES   REMARKS
CHATTANOOGA    MOCLDY    55  30  38 CALM      30.07R                  
$$

SKY/WX REPORTED AS FAIR MEANS FEW OR NO CLOUDS BELOW
12 THOUSAND FEET.